Regional Weather Roundup
Issued by NWS

Home | Current Version | Previous Version | Graphics & Text | Print | Product List | Glossary On
Versions: 1 2 3 4 5 6 7 8 9 10 11 12 13 14 15 16 17 18 19 20 21 22 23 24 25 26 27 28 29 30 31 32 33 34 35 36 37 38 39 40 41 42 43 44 45 46 47 48 49 50
155
ASUS44 KLIX 200010
RWRLA
LOUISIANA WEATHER ROUNDUP
NATIONAL WEATHER SERVICE NEW ORLEANS LA
700 PM CDT SAT APR 19 2014

NOTE: "FAIR" INDICATES FEW OR NO CLOUDS BELOW 12,000 FEET WITH NO
      SIGNIFICANT WEATHER AND/OR OBSTRUCTIONS TO VISIBILITY.
      SKY/WX - SKY CONDITION AND SIGNIFICANT WEATHER.
      TMP - AIR TEMPERATURE.    DP   - DEWPOINT TEMPERATURE.
      RH  - RELATIVE HUMIDITY.  PRES - PRESSURE.
      HX  - HEAT INDEX.         WCI  - WIND CHILL INDEX.

*  THESE STATIONS ARE NOT NWS OR FAA STATIONS AND ARE NOT UNDER
   NWS QUALITY CONTROL.

LAZ040-048-061>063-065-066-069-200100-
SOUTHEAST LOUISIANA

CITY           SKY/WX    TMP DP  RH WIND       PRES   REMARKS
N.O. AUDUBON     N/A     76  53  44 MISG        N/A
6HR MIN TEMP:  76; 6HR MAX TEMP:  80;

N.O. INTL ARPT PTCLDY    73  55  53 NW7       30.09R
6HR MIN TEMP:  72; 6HR MAX TEMP:  78;

N.O. LAKEFRONT CLEAR     71  61  70 W8        30.09R
6HR MIN TEMP:  67; 6HR MAX TEMP:  73;

N.O. DOWNTOWN* FAIR      77  48  36 NW6       30.09S
6HR MIN TEMP:  72; 6HR MAX TEMP:  79;

SLIDELL        CLEAR     76  51  41 N5        30.07R
6HR MIN TEMP:  75; 6HR MAX TEMP:  80;

BATON ROUGE    CLEAR     76  53  44 W6        30.09S
6HR MIN TEMP:  76; 6HR MAX TEMP:  82;

BOOTHVILLE     CLEAR     70  60  70 W6        30.09S
6HR MIN TEMP:  65; 6HR MAX TEMP:  74;

BELLE CHASSE   PTCLDY    76  48  37 NW5       30.08R
6HR MIN TEMP:  73; 6HR MAX TEMP:  78;

BOGALUSA*        N/A     76  53  44 N3        30.10R
6HR MIN TEMP:  76; 6HR MAX TEMP:  80;

GALLIANO*      CLEAR     72  59  63 S8        30.10S
6HR MIN TEMP:  72; 6HR MAX TEMP:  77;

NEW ROADS*     FAIR      75  51  42 NW6       30.10S
6HR MIN TEMP:  73; 6HR MAX TEMP:  78;

GONZALES*      FAIR      75  55  49 CALM      30.09R
6HR MIN TEMP:  74; 6HR MAX TEMP:  79;

HAMMOND*       CLEAR     77  52  41 CALM      30.10R
HOUMA*         CLEAR     75  50  41 N6        30.09S
PORT FOURCHON* CLEAR     70  57  64 SW7       30.12S

$$

LAZ041-044-053-054-200100-
SOUTHWEST LOUISIANA

CITY           SKY/WX    TMP DP  RH WIND       PRES   REMARKS
LAKE CHARLES   PTCLDY    76  54  46 E5        30.10S
6HR MIN TEMP:  74; 6HR MAX TEMP:  80;

LAFAYETTE      CLEAR     77  52  41 NE5       30.10S
6HR MIN TEMP:  75; 6HR MAX TEMP:  80;

PATTERSON      CLEAR     73  57  56 SW9       30.14S
6HR MIN TEMP:  73; 6HR MAX TEMP:  79;

SALT POINT       N/A     72  63  73 CALM      30.10S
6HR MIN TEMP:  72; 6HR MAX TEMP:  76;

NEW IBERIA     CLEAR     76  52  43 N5        30.11R
6HR MIN TEMP:  76; 6HR MAX TEMP:  80;

CHENAULT AIRPK NOT AVBL

$$

LAZ027-028-200100-
CENTRAL LOUISIANA

CITY           SKY/WX    TMP DP  RH WIND       PRES   REMARKS
FORT POLK      CLEAR     75  54  47 CALM      30.10F
6HR MIN TEMP:  73; 6HR MAX TEMP:  79;

ALEXANDRIA INT PTCLDY    76  55  48 NW3       30.09S
6HR MIN TEMP:  74; 6HR MAX TEMP:  80;

ALEXANDRIA     CLEAR     79  53  40 CALM      30.11R
6HR MIN TEMP:  76; 6HR MAX TEMP:  82;


$$

LAZ001-002-200100-
NORTHWEST LOUISIANA

CITY           SKY/WX    TMP DP  RH WIND       PRES   REMARKS
SHREVEPORT     MOCLDY    74  53  48 SE3       30.11S
6HR MIN TEMP:  74; 6HR MAX TEMP:  80;

BARKSDALE AFB  MOCLDY    76  53  44 SE5       30.11S
6HR MIN TEMP:  73; 6HR MAX TEMP:  79;

DTN SHREVEPORT CLEAR     73  52  47 CALM      30.11S
6HR MIN TEMP:  72; 6HR MAX TEMP:  78;


$$

LAZ014-016-200100-
NORTHEAST LOUISIANA

CITY           SKY/WX    TMP DP  RH WIND       PRES   REMARKS
MONROE         CLEAR     74  55  51 CALM      30.12F
6HR MIN TEMP:  74; 6HR MAX TEMP:  79;

TALLULAH       CLEAR     74  53  48 N7        30.11F
6HR MIN TEMP:  73; 6HR MAX TEMP:  78;


$$




USA.gov is the U.S. government's official web portal to all federal, state and local government web resources and services.